| time (UTC) | temp C | wind direction | speed KPH | gust KPH | rain 1hr cm | rain 24hr cm | rain mn cm | humidity % | barometer mb |
| 20260903194929 | 25 | 349 | 0.0 | 0.0 | 0.00 | 0.00 | 0.00 | 75 | 1016.5 |
| 20260903193928 | 25 | 349 | 0.0 | 0.0 | 0.00 | 0.00 | 0.00 | 75 | 1016.4 |
| 20260903192928 | 25 | 349 | 0.0 | 0.0 | 0.00 | 0.00 | 0.00 | 75 | 1016.4 |
| 20260903192429 | 25 | 349 | 0.0 | 0.0 | 0.00 | 0.00 | 0.00 | 75 | 1016.4 |
| 20260903191929 | 25 | 349 | 0.0 | 0.0 | 0.00 | 0.00 | 0.00 | 74 | 1016.4 |
| 20260903191429 | 26 | 349 | 0.0 | 0.0 | 0.00 | 0.00 | 0.00 | 74 | 1016.4 |
| 20260903190929 | 26 | 349 | 0.0 | 0.0 | 0.00 | 0.00 | 0.00 | 74 | 1016.3 |
| 20260903190429 | 26 | 349 | 0.0 | 0.0 | 0.00 | 0.00 | 0.00 | 73 | 1016.3 |
| 20260903185429 | 25 | 349 | 0.0 | 0.0 | 0.00 | 0.00 | 0.00 | 73 | 1016.2 |
| 20260903184928 | 26 | 349 | 0.0 | 0.0 | 0.00 | 0.00 | 0.00 | 74 | 1016.1 |
| 20260903184428 | 26 | 349 | 0.0 | 0.0 | 0.00 | 0.00 | 0.00 | 73 | 1016.1 |
| 20260903183930 | 26 | 349 | 0.0 | 0.0 | 0.00 | 0.00 | 0.00 | 73 | 1016.1 |
| 20260903183428 | 26 | 349 | 0.0 | 0.0 | 0.00 | 0.00 | 0.00 | 72 | 1016.0 |
| 20260903182928 | 26 | 349 | 0.0 | 1.6 | 0.00 | 0.00 | 0.00 | 72 | 1016.0 |
| 20260903182428 | 26 | 349 | 1.6 | 3.2 | 0.00 | 0.00 | 0.00 | 71 | 1015.9 |
| 20260903181928 | 26 | 349 | 1.6 | 3.2 | 0.00 | 0.00 | 0.00 | 71 | 1015.9 |
| 20260903181428 | 26 | 349 | 1.6 | 3.2 | 0.00 | 0.00 | 0.00 | 70 | 1015.9 |
| 20260903180929 | 27 | 349 | 0.0 | 0.0 | 0.00 | 0.00 | 0.00 | 69 | 1015.8 |
| 20260903180428 | 27 | 349 | 0.0 | 1.6 | 0.00 | 0.00 | 0.00 | 68 | 1015.8 |
| 20260903175928 | 27 | 349 | 0.0 | 1.6 | 0.00 | 0.00 | 0.00 | 67 | 1015.7 |
| 20260903175428 | 27 | 349 | 0.0 | 0.0 | 0.00 | 0.00 | 0.00 | 67 | 1015.7 |
| 20260903174929 | 27 | 349 | 0.0 | 1.6 | 0.00 | 0.00 | 0.00 | 66 | 1015.8 |
| 20260903174428 | 28 | 349 | 0.0 | 0.0 | 0.00 | 0.00 | 0.00 | 65 | 1015.7 |
| 20260903173929 | 28 | 349 | 0.0 | 1.6 | 0.00 | 0.00 | 0.00 | 64 | 1015.7 |
| 20260903173428 | 29 | 349 | 1.6 | 3.2 | 0.00 | 0.00 | 0.00 | 55 | 1015.7 |
| 20260903172929 | 30 | 339 | 3.2 | 4.8 | 0.00 | 0.00 | 0.00 | 55 | 1015.7 |
| 20260903172428 | 30 | 335 | 3.2 | 4.8 | 0.00 | 0.00 | 0.00 | 55 | 1015.7 |
| 20260903171928 | 30 | 326 | 1.6 | 4.8 | 0.00 | 0.00 | 0.00 | 55 | 1015.7 |
| 20260903171428 | 30 | 324 | 3.2 | 4.8 | 0.00 | 0.00 | 0.00 | 53 | 1015.6 |
| 20260903170428 | 31 | 299 | 4.8 | 9.7 | 0.00 | 0.00 | 0.00 | 52 | 1015.6 |
| 20260903165428 | 31 | 316 | 4.8 | 4.8 | 0.00 | 0.00 | 0.00 | 51 | 1015.6 |
| 20260903164928 | 31 | 300 | 4.8 | 8.0 | 0.00 | 0.00 | 0.00 | 50 | 1015.5 |
| 20260903164428 | 31 | 306 | 4.8 | 11.3 | 0.00 | 0.00 | 0.00 | 50 | 1015.5 |
| 20260903163928 | 31 | 297 | 1.6 | 11.3 | 0.00 | 0.00 | 0.00 | 50 | 1015.5 |
| 20260903163428 | 31 | 240 | 3.2 | 8.0 | 0.00 | 0.00 | 0.00 | 49 | 1015.4 |
| 20260903162929 | 32 | 219 | 3.2 | 4.8 | 0.00 | 0.00 | 0.00 | 50 | 1015.4 |
| 20260903162428 | 32 | 255 | 6.4 | 11.3 | 0.00 | 0.00 | 0.00 | 50 | 1015.4 |
| 20260903161929 | 32 | 252 | 4.8 | 9.7 | 0.00 | 0.00 | 0.00 | 51 | 1015.3 |
| 20260903160929 | 32 | 275 | 6.4 | 11.3 | 0.00 | 0.00 | 0.00 | 48 | 1015.3 |
| 20260903160428 | 32 | 272 | 3.2 | 9.7 | 0.00 | 0.00 | 0.00 | 49 | 1015.3 |
| 20260903155928 | 32 | 271 | 4.8 | 8.0 | 0.00 | 0.00 | 0.00 | 48 | 1015.3 |
| 20260903155429 | 32 | 249 | 8.0 | 12.9 | 0.00 | 0.00 | 0.00 | 48 | 1015.3 |
| 20260903154928 | 32 | 206 | 4.8 | 9.7 | 0.00 | 0.00 | 0.00 | 47 | 1015.3 |
| 20260903153927 | 32 | 289 | 4.8 | 11.3 | 0.00 | 0.00 | 0.00 | 46 | 1015.3 |
| 20260903153428 | 32 | 272 | 8.0 | 19.3 | 0.00 | 0.00 | 0.00 | 47 | 1015.4 |
| 20260903152927 | 32 | 230 | 4.8 | 19.3 | 0.00 | 0.00 | 0.00 | 48 | 1015.4 |
| 20260903152429 | 32 | 286 | 8.0 | 19.3 | 0.00 | 0.00 | 0.00 | 49 | 1015.4 |
| 20260903151928 | 32 | 277 | 9.7 | 24.1 | 0.00 | 0.00 | 0.00 | 49 | 1015.3 |
| 20260903151428 | 32 | 292 | 6.4 | 11.3 | 0.00 | 0.00 | 0.00 | 47 | 1015.3 |
| 20260903150927 | 32 | 250 | 1.6 | 8.0 | 0.00 | 0.00 | 0.00 | 44 | 1015.3 |
| 20260903150428 | 32 | 262 | 8.0 | 12.9 | 0.00 | 0.00 | 0.00 | 48 | 1015.4 |
| 20260903145928 | 32 | 237 | 8.0 | 11.3 | 0.00 | 0.00 | 0.00 | 49 | 1015.4 |
| 20260903145427 | 32 | 221 | 3.2 | 9.7 | 0.00 | 0.00 | 0.00 | 50 | 1015.4 |
| 20260903144929 | 32 | 245 | 4.8 | 4.8 | 0.00 | 0.00 | 0.00 | 51 | 1015.6 |
| 20260903144428 | 32 | 166 | 3.2 | 9.7 | 0.00 | 0.00 | 0.00 | 54 | 1015.6 |
| 20260903143927 | 32 | 107 | 6.4 | 11.3 | 0.00 | 0.00 | 0.00 | 53 | 1015.7 |
| 20260903143428 | 32 | 115 | 4.8 | 8.0 | 0.00 | 0.00 | 0.00 | 53 | 1015.8 |
| 20260903142928 | 32 | 93 | 3.2 | 4.8 | 0.00 | 0.00 | 0.00 | 54 | 1015.9 |
| 20260903142427 | 32 | 122 | 1.6 | 4.8 | 0.00 | 0.00 | 0.00 | 54 | 1016.0 |
| 20260903141928 | 32 | 94 | 3.2 | 8.0 | 0.00 | 0.00 | 0.00 | 54 | 1016.1 |
| 20260903141427 | 32 | 12 | 1.6 | 3.2 | 0.00 | 0.00 | 0.00 | 53 | 1016.1 |
| 20260903140929 | 31 | 52 | 3.2 | 9.7 | 0.00 | 0.00 | 0.00 | 53 | 1016.2 |
| 20260903140427 | 32 | 140 | 8.0 | 9.7 | 0.00 | 0.00 | 0.00 | 54 | 1016.1 |
| 20260903135927 | 32 | 191 | 3.2 | 4.8 | 0.00 | 0.00 | 0.00 | 55 | 1016.2 |
| 20260903134927 | 32 | 145 | 4.8 | 9.7 | 0.00 | 0.00 | 0.00 | 54 | 1016.2 |
| 20260903134428 | 32 | 147 | 3.2 | 8.0 | 0.00 | 0.00 | 0.00 | 54 | 1016.2 |
| 20260903133928 | 32 | 103 | 3.2 | 4.8 | 0.00 | 0.00 | 0.00 | 54 | 1016.3 |
| 20260903133427 | 31 | 110 | 4.8 | 12.9 | 0.00 | 0.00 | 0.00 | 55 | 1016.4 |
| 20260903132428 | 32 | 53 | 4.8 | 11.3 | 0.00 | 0.00 | 0.00 | 55 | 1016.4 |
| 20260903131928 | 32 | 324 | 3.2 | 8.0 | 0.00 | 0.00 | 0.00 | 54 | 1016.5 |
| 20260903131427 | 31 | 275 | 0.0 | 11.3 | 0.00 | 0.00 | 0.00 | 57 | 1016.5 |
| 20260903130928 | 31 | 70 | 6.4 | 11.3 | 0.00 | 0.00 | 0.00 | 55 | 1016.5 |
| 20260903130428 | 31 | 43 | 4.8 | 11.3 | 0.00 | 0.00 | 0.00 | 54 | 1016.6 |
| 20260903125927 | 31 | 74 | 6.4 | 11.3 | 0.00 | 0.00 | 0.00 | 56 | 1016.6 |
| 20260903125428 | 31 | 114 | 3.2 | 14.5 | 0.00 | 0.00 | 0.00 | 55 | 1016.6 |
| 20260903124428 | 31 | 97 | 8.0 | 11.3 | 0.00 | 0.00 | 0.00 | 55 | 1016.7 |
| 20260903123927 | 31 | 86 | 4.8 | 9.7 | 0.00 | 0.00 | 0.00 | 56 | 1016.8 |
| 20260903123427 | 31 | 99 | 6.4 | 11.3 | 0.00 | 0.00 | 0.00 | 56 | 1016.9 |
| 20260903122428 | 31 | 85 | 6.4 | 11.3 | 0.00 | 0.00 | 0.00 | 57 | 1016.7 |
| 20260903121927 | 31 | 105 | 9.7 | 14.5 | 0.00 | 0.00 | 0.00 | 58 | 1016.8 |
| 20260903121428 | 31 | 94 | 3.2 | 12.9 | 0.00 | 0.00 | 0.00 | 56 | 1016.8 |
| 20260903120928 | 31 | 106 | 3.2 | 9.7 | 0.00 | 0.00 | 0.00 | 57 | 1016.8 |
| 20260903120427 | 31 | 81 | 4.8 | 16.1 | 0.00 | 0.00 | 0.00 | 56 | 1016.9 |
| 20260903115427 | 31 | 111 | 6.4 | 9.7 | 0.00 | 0.00 | 0.00 | 58 | 1017.0 |
| 20260903114927 | 31 | 300 | 1.6 | 8.0 | 0.00 | 0.00 | 0.00 | 61 | 1017.0 |
| 20260903114427 | 31 | 294 | 1.6 | 4.8 | 0.00 | 0.00 | 0.00 | 59 | 1017.1 |
| 20260903113427 | 31 | 129 | 6.4 | 11.3 | 0.00 | 0.00 | 0.00 | 57 | 1017.1 |
| 20260903112927 | 31 | 125 | 8.0 | 12.9 | 0.00 | 0.00 | 0.00 | 58 | 1017.2 |
| 20260903112427 | 30 | 134 | 6.4 | 11.3 | 0.00 | 0.00 | 0.00 | 58 | 1017.2 |
| 20260903110929 | 30 | 54 | 8.0 | 12.9 | 0.00 | 0.00 | 0.00 | 61 | 1017.6 |
| 20260903110427 | 30 | 79 | 11.3 | 14.5 | 0.00 | 0.00 | 0.00 | 60 | 1017.6 |
| 20260903105427 | 30 | 81 | 9.7 | 19.3 | 0.00 | 0.00 | 0.00 | 61 | 1017.6 |
| 20260903104927 | 30 | 92 | 4.8 | 11.3 | 0.00 | 0.00 | 0.00 | 61 | 1017.6 |
| 20260903104427 | 30 | 20 | 1.6 | 11.3 | 0.00 | 0.00 | 0.00 | 64 | 1017.7 |
| 20260903103927 | 30 | 133 | 3.2 | 8.0 | 0.00 | 0.00 | 0.00 | 63 | 1017.7 |
| 20260903103426 | 30 | 111 | 4.8 | 11.3 | 0.00 | 0.00 | 0.00 | 63 | 1017.7 |
| 20260903102427 | 29 | 47 | 4.8 | 12.9 | 0.00 | 0.00 | 0.00 | 63 | 1017.9 |
| 20260903101927 | 29 | 82 | 6.4 | 12.9 | 0.00 | 0.00 | 0.00 | 63 | 1017.9 |
| 20260903101427 | 29 | 119 | 1.6 | 8.0 | 0.00 | 0.00 | 0.00 | 64 | 1018.0 |
| 20260903100927 | 29 | 101 | 8.0 | 14.5 | 0.00 | 0.00 | 0.00 | 64 | 1018.1 |
| 20260903095427 | 28 | 58 | 6.4 | 11.3 | 0.00 | 0.00 | 0.00 | 65 | 1018.3 |
| 20260903094426 | 28 | 81 | 4.8 | 11.3 | 0.00 | 0.00 | 0.00 | 63 | 1018.3 |
| 20260903093927 | 28 | 134 | 4.8 | 9.7 | 0.00 | 0.00 | 0.00 | 65 | 1018.4 |
| 20260903093426 | 28 | 57 | 1.6 | 4.8 | 0.00 | 0.00 | 0.00 | 66 | 1018.5 |
| 20260903092927 | 28 | 118 | 4.8 | 11.3 | 0.00 | 0.00 | 0.00 | 65 | 1018.5 |
| 20260903092427 | 28 | 136 | 4.8 | 11.3 | 0.00 | 0.00 | 0.00 | 64 | 1018.5 |
| 20260903091927 | 28 | 110 | 11.3 | 14.5 | 0.00 | 0.00 | 0.00 | 64 | 1018.6 |
| 20260903091427 | 28 | 64 | 6.4 | 11.3 | 0.00 | 0.00 | 0.00 | 66 | 1018.7 |
| 20260903090926 | 28 | 107 | 4.8 | 9.7 | 0.00 | 0.00 | 0.00 | 64 | 1018.7 |
| 20260903085927 | 27 | 132 | 4.8 | 11.3 | 0.00 | 0.00 | 0.00 | 66 | 1018.7 |
| 20260903084926 | 27 | 126 | 4.8 | 11.3 | 0.00 | 0.00 | 0.00 | 69 | 1018.5 |
| 20260903084430 | 27 | 115 | 4.8 | 11.3 | 0.00 | 0.00 | 0.00 | 67 | 1018.5 |
| 20260903083427 | 27 | 46 | 3.2 | 9.7 | 0.00 | 0.00 | 0.00 | 68 | 1018.5 |
| 20260903082926 | 27 | 89 | 8.0 | 14.5 | 0.00 | 0.00 | 0.00 | 68 | 1018.5 |
| 20260903082427 | 26 | 105 | 8.0 | 12.9 | 0.00 | 0.00 | 0.00 | 67 | 1018.4 |
| 20260903081942 | 26 | 93 | 6.4 | 12.9 | 0.00 | 0.00 | 0.00 | 69 | 1018.3 |
| 20260903081427 | 26 | 107 | 6.4 | 14.5 | 0.00 | 0.00 | 0.00 | 68 | 1018.3 |
| 20260903080926 | 26 | 74 | 9.7 | 16.1 | 0.00 | 0.00 | 0.00 | 68 | 1018.3 |
| 20260903080427 | 26 | 61 | 8.0 | 14.5 | 0.00 | 0.00 | 0.00 | 70 | 1018.4 |
| 20260903075927 | 25 | 89 | 6.4 | 12.9 | 0.00 | 0.00 | 0.00 | 73 | 1018.4 |
| 20260903074927 | 25 | 67 | 4.8 | 8.0 | 0.00 | 0.00 | 0.00 | 77 | 1018.3 |
| 20260903074426 | 25 | 83 | 4.8 | 8.0 | 0.00 | 0.00 | 0.00 | 77 | 1018.3 |
| 20260903073927 | 25 | 80 | 3.2 | 8.0 | 0.00 | 0.00 | 0.00 | 77 | 1018.2 |
| 20260903073426 | 25 | 81 | 3.2 | 9.7 | 0.00 | 0.00 | 0.00 | 77 | 1018.2 |
| 20260903072926 | 25 | 26 | 3.2 | 4.8 | 0.00 | 0.00 | 0.00 | 78 | 1018.2 |
| 20260903072427 | 24 | 102 | 4.8 | 8.0 | 0.00 | 0.00 | 0.00 | 79 | 1018.2 |
| 20260903071926 | 23 | 119 | 3.2 | 4.8 | 0.00 | 0.00 | 0.00 | 81 | 1018.2 |
| 20260903071429 | 23 | 102 | 3.2 | 4.8 | 0.00 | 0.00 | 0.00 | 80 | 1018.1 |
| 20260903070430 | 23 | 93 | 3.2 | 8.0 | 0.00 | 0.00 | 0.00 | 82 | 1018.1 |
| 20260903065926 | 23 | 90 | 3.2 | 8.0 | 0.00 | 0.00 | 0.00 | 83 | 1018.1 |
| 20260903065426 | 23 | 76 | 3.2 | 8.0 | 0.00 | 0.00 | 0.00 | 82 | 1018.1 |
| 20260903064933 | 23 | 69 | 3.2 | 4.8 | 0.00 | 0.00 | 0.00 | 82 | 1018.1 |
| 20260903064426 | 23 | 68 | 3.2 | 4.8 | 0.00 | 0.00 | 0.00 | 83 | 1018.1 |
| 20260903063428 | 22 | 75 | 1.6 | 4.8 | 0.00 | 0.00 | 0.00 | 83 | 1018.0 |
| 20260903062427 | 22 | 55 | 3.2 | 4.8 | 0.00 | 0.00 | 0.00 | 83 | 1018.0 |
| 20260903061926 | 22 | 55 | 1.6 | 3.2 | 0.00 | 0.00 | 0.00 | 83 | 1018.0 |
| 20260903060926 | 22 | 53 | 3.2 | 4.8 | 0.00 | 0.00 | 0.00 | 83 | 1018.0 |
| 20260903060426 | 22 | 53 | 1.6 | 3.2 | 0.00 | 0.00 | 0.00 | 84 | 1018.0 |
| 20260903055929 | 21 | 53 | 1.6 | 3.2 | 0.00 | 0.00 | 0.00 | 85 | 1018.0 |
| 20260903055427 | 21 | 44 | 3.2 | 4.8 | 0.00 | 0.00 | 0.00 | 87 | 1017.8 |
| 20260903054427 | 21 | 13 | 1.6 | 3.2 | 0.00 | 0.00 | 0.00 | 89 | 1017.7 |
| 20260903053927 | 20 | 347 | 0.0 | 0.0 | 0.00 | 0.00 | 0.00 | 89 | 1017.6 |
| 20260903053426 | 20 | 347 | 0.0 | 1.6 | 0.00 | 0.00 | 0.00 | 89 | 1017.6 |
| 20260903052927 | 20 | 347 | 0.0 | 3.2 | 0.00 | 0.00 | 0.00 | 90 | 1017.5 |
| 20260903052430 | 20 | 347 | 0.0 | 0.0 | 0.00 | 0.00 | 0.00 | 91 | 1017.4 |
| 20260903051928 | 20 | 347 | 0.0 | 0.0 | 0.00 | 0.00 | 0.00 | 91 | 1017.4 |
| 20260903051426 | 20 | 347 | 0.0 | 0.0 | 0.00 | 0.00 | 0.00 | 91 | 1017.4 |
| 20260903050926 | 20 | 330 | 0.0 | 0.0 | 0.00 | 0.00 | 0.00 | 91 | 1017.3 |
| 20260903045426 | 20 | 355 | 0.0 | 0.0 | 0.00 | 0.00 | 0.00 | 90 | 1017.2 |
| 20260903044926 | 20 | 0 | 0.0 | 0.0 | 0.00 | 0.00 | 0.00 | 90 | 1017.1 |
| 20260903044429 | 20 | 0 | 0.0 | 1.6 | 0.00 | 0.00 | 0.00 | 90 | 1017.0 |
| 20260903043926 | 20 | 0 | 1.6 | 3.2 | 0.00 | 0.00 | 0.00 | 90 | 1017.0 |
| 20260903043426 | 20 | 0 | 1.6 | 4.8 | 0.00 | 0.00 | 0.00 | 90 | 1016.9 |
| 20260903042427 | 20 | 57 | 0.0 | 3.2 | 0.00 | 0.00 | 0.00 | 90 | 1016.9 |
| 20260903041931 | 20 | 57 | 0.0 | 0.0 | 0.00 | 0.00 | 0.00 | 90 | 1016.9 |
| 20260903041426 | 20 | 57 | 0.0 | 0.0 | 0.00 | 0.00 | 0.00 | 89 | 1016.8 |
| 20260903040942 | 20 | 57 | 0.0 | 1.6 | 0.00 | 0.00 | 0.00 | 89 | 1016.9 |
| 20260903035925 | 20 | 57 | 1.6 | 3.2 | 0.00 | 0.00 | 0.00 | 90 | 1016.9 |
| 20260903035426 | 20 | 57 | 1.6 | 3.2 | 0.00 | 0.00 | 0.00 | 89 | 1016.9 |
| 20260903034927 | 20 | 57 | 3.2 | 4.8 | 0.00 | 0.00 | 0.00 | 89 | 1016.8 |
| 20260903033933 | 20 | 57 | 3.2 | 8.0 | 0.00 | 0.00 | 0.00 | 90 | 1016.9 |
| 20260903033427 | 20 | 53 | 4.8 | 4.8 | 0.00 | 0.00 | 0.00 | 90 | 1016.8 |
| 20260903032941 | 20 | 67 | 3.2 | 4.8 | 0.00 | 0.00 | 0.00 | 91 | 1016.8 |
| 20260903032426 | 20 | 71 | 4.8 | 8.0 | 0.00 | 0.00 | 0.00 | 91 | 1016.8 |
| 20260903031426 | 20 | 74 | 0.0 | 0.0 | 0.00 | 0.00 | 0.00 | 91 | 1016.7 |
| 20260903030926 | 20 | 74 | 0.0 | 0.0 | 0.00 | 0.00 | 0.00 | 91 | 1016.8 |
| 20260903030426 | 20 | 74 | 0.0 | 0.0 | 0.00 | 0.00 | 0.00 | 91 | 1016.8 |
| 20260903025925 | 20 | 74 | 0.0 | 0.0 | 0.00 | 0.00 | 0.00 | 91 | 1016.8 |
| 20260903025425 | 20 | 74 | 0.0 | 0.0 | 0.00 | 0.00 | 0.00 | 91 | 1016.8 |
| 20260903024927 | 20 | 74 | 0.0 | 0.0 | 0.00 | 0.00 | 0.00 | 90 | 1016.8 |
| 20260903024426 | 20 | 83 | 0.0 | 0.0 | 0.00 | 0.00 | 0.00 | 90 | 1016.8 |
| 20260903023927 | 20 | 83 | 0.0 | 0.0 | 0.00 | 0.00 | 0.00 | 90 | 1016.8 |
| 20260903023427 | 20 | 83 | 0.0 | 0.0 | 0.00 | 0.00 | 0.00 | 90 | 1016.8 |
| 20260903022942 | 20 | 56 | 0.0 | 0.0 | 0.00 | 0.00 | 0.00 | 90 | 1016.7 |
| 20260903022426 | 20 | 56 | 0.0 | 0.0 | 0.00 | 0.00 | 0.00 | 90 | 1016.7 |
| 20260903021926 | 20 | 56 | 0.0 | 0.0 | 0.00 | 0.00 | 0.00 | 90 | 1016.8 |
| 20260903020925 | 20 | 56 | 0.0 | 0.0 | 0.00 | 0.00 | 0.00 | 89 | 1016.8 |
| 20260903020425 | 20 | 56 | 0.0 | 0.0 | 0.00 | 0.00 | 0.00 | 89 | 1016.7 |
| 20260903015926 | 20 | 56 | 0.0 | 0.0 | 0.00 | 0.00 | 0.00 | 89 | 1016.7 |
| 20260903014926 | 20 | 56 | 3.2 | 4.8 | 0.00 | 0.00 | 0.00 | 89 | 1016.7 |
| 20260903014425 | 20 | 56 | 3.2 | 4.8 | 0.00 | 0.00 | 0.00 | 88 | 1016.7 |
| 20260903013426 | 20 | 57 | 1.6 | 3.2 | 0.00 | 0.00 | 0.00 | 88 | 1016.7 |
| 20260903012925 | 20 | 57 | 1.6 | 3.2 | 0.00 | 0.00 | 0.00 | 88 | 1016.7 |
| 20260903012427 | 20 | 40 | 1.6 | 3.2 | 0.00 | 0.00 | 0.00 | 88 | 1016.6 |
| 20260903011425 | 20 | 66 | 3.2 | 4.8 | 0.00 | 0.00 | 0.00 | 87 | 1016.6 |
| 20260903010930 | 20 | 66 | 0.0 | 4.8 | 0.00 | 0.00 | 0.00 | 87 | 1016.7 |
| 20260903010428 | 20 | 66 | 3.2 | 4.8 | 0.00 | 0.00 | 0.00 | 87 | 1016.7 |
| 20260903005925 | 21 | 66 | 4.8 | 4.8 | 0.00 | 0.00 | 0.00 | 87 | 1016.7 |
| 20260903004425 | 21 | 66 | 1.6 | 4.8 | 0.00 | 0.00 | 0.00 | 86 | 1016.6 |
| 20260903003925 | 21 | 66 | 3.2 | 4.8 | 0.00 | 0.00 | 0.00 | 86 | 1016.6 |
| 20260903003426 | 21 | 66 | 3.2 | 4.8 | 0.00 | 0.00 | 0.00 | 85 | 1016.5 |
| 20260903001426 | 21 | 55 | 3.2 | 4.8 | 0.00 | 0.00 | 0.00 | 85 | 1016.5 |
| 20260903000926 | 21 | 55 | 1.6 | 3.2 | 0.00 | 0.00 | 0.00 | 85 | 1016.5 |
| 20260903000426 | 21 | 56 | 1.6 | 3.2 | 0.00 | 0.00 | 0.00 | 84 | 1016.5 |
| 20260902235925 | 21 | 56 | 1.6 | 3.2 | 0.00 | 0.00 | 0.00 | 84 | 1016.4 |
| 20260902234925 | 21 | 55 | 3.2 | 4.8 | 0.00 | 0.00 | 0.00 | 85 | 1016.4 |
| 20260902234425 | 21 | 56 | 3.2 | 4.8 | 0.00 | 0.00 | 0.00 | 86 | 1016.3 |
| 20260902232425 | 22 | 56 | 3.2 | 4.8 | 0.00 | 0.00 | 0.00 | 85 | 1016.4 |
| 20260902231925 | 22 | 56 | 3.2 | 4.8 | 0.00 | 0.00 | 0.00 | 86 | 1016.4 |
| 20260902231426 | 21 | 56 | 3.2 | 4.8 | 0.00 | 0.00 | 0.00 | 86 | 1016.4 |
| 20260902230425 | 22 | 37 | 3.2 | 4.8 | 0.00 | 0.00 | 0.00 | 86 | 1016.4 |
| 20260902225925 | 22 | 37 | 0.0 | 3.2 | 0.00 | 0.00 | 0.00 | 85 | 1016.3 |
| 20260902225425 | 22 | 37 | 1.6 | 4.8 | 0.00 | 0.00 | 0.00 | 84 | 1016.3 |
| 20260902224927 | 22 | 37 | 4.8 | 4.8 | 0.00 | 0.00 | 0.00 | 84 | 1016.3 |
| 20260902224440 | 22 | 38 | 1.6 | 4.8 | 0.00 | 0.00 | 0.00 | 84 | 1016.3 |
| 20260902223425 | 22 | 16 | 4.8 | 8.0 | 0.00 | 0.00 | 0.00 | 84 | 1016.2 |
| 20260902221926 | 22 | 180 | 1.6 | 3.2 | 0.00 | 0.00 | 0.00 | 83 | 1016.1 |
| 20260902221425 | 22 | 180 | 0.0 | 0.0 | 0.00 | 0.00 | 0.00 | 82 | 1016.1 |
| 20260902220925 | 22 | 180 | 0.0 | 0.0 | 0.00 | 0.00 | 0.00 | 82 | 1016.1 |
| 20260902215925 | 23 | 180 | 0.0 | 0.0 | 0.00 | 0.00 | 0.00 | 81 | 1016.1 |
| 20260902215425 | 23 | 180 | 1.6 | 3.2 | 0.00 | 0.00 | 0.00 | 80 | 1016.0 |
| 20260902214940 | 23 | 180 | 0.0 | 0.0 | 0.00 | 0.00 | 0.00 | 80 | 1016.0 |
| 20260902214427 | 23 | 180 | 1.6 | 3.2 | 0.00 | 0.00 | 0.00 | 81 | 1016.0 |
| 20260902213925 | 23 | 180 | 1.6 | 3.2 | 0.00 | 0.00 | 0.00 | 81 | 1016.0 |
| 20260902212425 | 23 | 211 | 0.0 | 0.0 | 0.00 | 0.00 | 0.00 | 80 | 1015.8 |
| 20260902211924 | 23 | 211 | 0.0 | 0.0 | 0.00 | 0.00 | 0.00 | 80 | 1015.8 |
| 20260902211425 | 23 | 211 | 0.0 | 0.0 | 0.00 | 0.00 | 0.00 | 79 | 1015.7 |
| 20260902210924 | 23 | 211 | 0.0 | 0.0 | 0.00 | 0.00 | 0.00 | 79 | 1015.7 |
| 20260902210424 | 23 | 211 | 0.0 | 0.0 | 0.00 | 0.00 | 0.00 | 78 | 1015.7 |
| 20260902205925 | 23 | 211 | 0.0 | 0.0 | 0.00 | 0.00 | 0.00 | 78 | 1015.7 |
| 20260902205425 | 23 | 211 | 0.0 | 0.0 | 0.00 | 0.00 | 0.00 | 78 | 1015.7 |
| 20260902204924 | 23 | 211 | 0.0 | 3.2 | 0.00 | 0.00 | 0.00 | 77 | 1015.7 |
| 20260902202924 | 23 | 202 | 3.2 | 4.8 | 0.00 | 0.00 | 0.00 | 77 | 1015.5 |
| 20260902202424 | 24 | 138 | 0.0 | 0.0 | 0.00 | 0.00 | 0.00 | 77 | 1015.5 |
| 20260902201924 | 24 | 138 | 0.0 | 0.0 | 0.00 | 0.00 | 0.00 | 77 | 1015.5 |
| 20260902200932 | 23 | 138 | 0.0 | 1.6 | 0.00 | 0.00 | 0.00 | 78 | 1015.5 |
| 20260902195925 | 23 | 138 | 3.2 | 4.8 | 0.00 | 0.00 | 0.00 | 76 | 1015.5 |